CDT,Max TemperatureF,Mean TemperatureF,Min TemperatureF,Max Dew PointF,MeanDew PointF,Min DewpointF,Max Humidity, Mean Humidity, Min Humidity, Max Sea Level PressureIn, Mean Sea Level PressureIn, Min Sea Level PressureIn, Max VisibilityMiles, Mean VisibilityMiles, Min VisibilityMiles, Max Wind SpeedMPH, Mean Wind SpeedMPH, Max Gust SpeedMPH,PrecipitationIn, CloudCover, Events, WindDirDegrees
2011-10-1,77,58,42,46,39,37,85,53,24,30.28,30.21,30.17,10,10,10,9,3,,0.00,0,,110
2011-10-2,81,63,45,44,41,37,80,48,21,30.26,30.17,30.09,10,10,10,14,6,20,0.00,0,,139
2011-10-3,86,70,55,43,41,38,57,36,21,30.17,30.12,30.06,10,10,10,16,10,25,0.00,0,,156
2011-10-4,87,72,57,46,41,37,47,34,22,30.19,30.12,30.05,10,10,10,14,10,21,0.00,0,,150
2011-10-5,82,68,55,46,42,39,55,37,24,30.11,30.04,29.96,10,10,9,16,11,23,0.00,0,,152
2011-10-6,86,76,66,48,44,41,47,34,21,29.98,29.91,29.83,10,10,10,30,16,40,0.00,1,,153
2011-10-7,82,76,69,62,56,47,64,51,38,30.02,29.94,29.88,10,10,10,25,18,34,0.00,4,,147
2011-10-8,81,72,63,61,57,51,93,66,44,30.09,30.00,29.92,10,10,7,23,15,34,0.02,4,Rain,163
2011-10-9,66,62,57,62,60,57,97,92,83,30.09,30.05,30.01,10,7,2,10,3,18,0.86,8,Rain,286
2011-10-10,70,62,54,58,55,52,94,83,57,30.09,30.03,29.97,10,9,4,7,3,,0.03,5,Rain,268
2011-10-11,77,64,50,58,54,48,94,74,48,29.96,29.87,29.75,10,8,1,13,4,18,0.00,1,,156
2011-10-12,80,68,55,58,52,46,90,60,32,29.87,29.76,29.70,10,10,7,14,7,24,0.00,0,,277
2011-10-13,77,64,50,46,42,34,74,52,22,29.98,29.91,29.86,10,10,10,13,6,20,0.00,0,,314
2011-10-14,80,63,46,49,42,35,90,51,24,30.06,29.95,29.88,10,10,10,12,3,,0.00,0,,55
2011-10-15,82,64,45,51,43,36,82,51,27,30.11,30.02,29.92,10,10,10,13,4,20,0.00,0,,166
2011-10-16,81,71,59,53,49,40,63,49,36,29.96,29.90,29.88,10,10,10,14,7,21,0.00,0,,249
2011-10-17,72,62,53,50,40,28,61,48,33,30.02,29.84,29.70,10,10,10,28,12,37,0.00,2,,44
2011-10-18,64,53,42,39,32,23,80,50,24,30.11,30.07,30.02,10,10,10,25,15,33,0.00,1,,342
2011-10-19,60,48,36,31,28,25,79,52,27,30.14,30.08,30.04,10,10,10,23,7,36,0.00,0,,338
2011-10-20,64,46,27,34,27,21,88,56,25,30.14,30.08,30.02,10,10,10,9,1,,0.00,0,,104
2011-10-21,75,55,35,38,34,30,87,54,22,30.18,30.11,30.06,10,10,10,7,3,,0.00,0,,162
2011-10-22,75,58,41,59,50,38,94,75,44,30.09,30.02,29.94,10,9,2,13,3,,0.38,2,Rain-Thunderstorm,95
2011-10-23,75,60,44,57,52,44,100,84,46,30.07,30.02,29.98,10,5,0,7,2,,0.00,1,Fog,200
2011-10-24,82,62,43,56,48,42,100,76,31,30.14,30.07,29.97,10,6,0,13,3,23,0.00,0,Fog,167
2011-10-25,84,74,63,57,54,43,73,57,37,29.96,29.85,29.78,10,10,10,18,11,31,0.00,0,,181
2011-10-26,66,57,48,43,39,37,66,52,36,30.08,29.95,29.83,10,10,10,26,15,36,0.00,2,,27
2011-10-27,57,48,41,39,36,32,79,60,40,30.18,30.12,30.08,10,10,10,16,10,24,0.00,3,Rain,15
2011-10-28,62,46,32,35,30,26,85,57,28,30.30,30.24,30.19,10,10,10,8,4,,0.00,0,,323
2011-10-29,66,50,35,38,31,24,85,51,20,30.21,30.11,29.98,10,10,10,15,4,28,0.00,0,,189
2011-10-30,66,54,39,36,32,24,76,49,21,30.18,30.09,29.97,10,10,10,15,6,22,0.00,0,,353
2011-10-31,73,53,33,46,36,28,86,56,25,30.17,30.09,29.99,10,10,10,15,3,22,0.00,0,,192